Simultaneous Nadir Overpasses (SNOs) Predictions

Prediction of SNOs between LANDSAT-8 and NPP Satellite Orbit:

Table of predicted SNOs for the next 14.0 days since TLE Epoch: 10/15/2016
Index Date (LANDSAT-8) Time (LANDSAT-8) Lat,Lon (LANDSAT-8) SZA (LANDSAT-8 ) Date (NPP) Time (NPP) Lat,Lon (NPP) SZA (NPP ) Distance(km) Time Diff (sec)
1 10/15/2016 14:42:15 -70.13, 136.00 101.16 10/15/2016 14:41:28 -70.15, 136.06 101.14 3.28 47
2 10/15/2016 15:31:42 70.03, -56.49 78.76 10/15/2016 15:32:12 70.02, -56.43 78.75 2.88 30
3 10/18/2016 06:09:03 70.88, 85.36 80.57 10/18/2016 06:07:55 70.92, 83.28 80.61 75.96 68
4 10/18/2016 06:58:45 -70.11,-108.14 100.20 10/18/2016 06:58:23 -70.11,-108.10 100.21 1.73 22
5 10/18/2016 07:48:12 70.01, 59.35 79.71 10/18/2016 07:49:08 70.03, 59.32 79.74 2.60 56
6 10/20/2016 22:25:45 70.19,-159.78 80.83 10/20/2016 22:24:37 70.20,-159.80 80.84 0.79 68
7 10/20/2016 23:15:15 -70.08, 7.69 99.27 10/20/2016 23:15:18 -70.06, 7.73 99.29 2.65 3
8 10/21/2016 00:04:47 69.70, 174.81 80.36 10/21/2016 00:05:58 69.73, 175.54 80.39 28.36 71
9 10/23/2016 14:42:14 70.15, -43.96 81.73 10/23/2016 14:41:31 70.16, -43.98 81.75 1.36 43
10 10/23/2016 15:31:44 -70.05, 123.52 98.36 10/23/2016 15:32:12 -70.02, 123.55 98.39 2.81 28
11 10/26/2016 06:09:04 -70.92, -94.58 96.58 10/26/2016 06:07:56 -70.98, -96.84 96.53 82.17 68
12 10/26/2016 06:58:44 70.10, 71.85 82.61 10/26/2016 06:58:26 70.13, 71.83 82.64 3.24 18
13 10/26/2016 07:48:14 -70.00,-120.67 97.49 10/26/2016 07:49:07 -69.99,-120.63 97.50 1.86 53
14 10/28/2016 22:25:47 -70.16, 20.16 96.46 10/28/2016 22:24:36 -70.16, 20.24 96.45 3.02 71
15 10/28/2016 23:15:14 70.04,-172.36 83.44 10/28/2016 23:15:20 70.05,-172.28 83.45 2.89 6
16 10/29/2016 00:04:47 -69.78, -5.10 96.82 10/29/2016 00:05:59 -69.80, -4.59 96.79 19.71 72




NCC Satellite Simultaneous Nadir Overpasses (SNOs) Prediction Service
